Location: Kellogg
(38.0159°N, 90.0546°W)
Time: 20:19:18
(UTC+00:00)

Transit 4A - Pass Details

Date: 20 September 2024
Orbit: 865 x 978 km, 66.8° (Epoch: 11 October)

Event Time Altitude Azimuth Distance (km) Brightness Sun altitude
Rises 07:05:34 0° 196° (SSW) 3,434 - -47.7°
Reaches altitude 10° 07:08:02 10° 192° (SSW) 2,507 - -47.5°
Maximum altitude 07:13:44 61° 113° (ESE) 997 - -47.0°
Exits shadow 07:18:50 14° 36° (NE) 2,307 10.4 -46.4°
Drops below altitude 10° 07:19:34 10° 35° (NE) 2,578 10.8 -46.4°
Sets 07:22:08 0° 32° (NNE) 3,540 11.7 -46.1°
